Theta_e
306 306 306 306 306 306 306 306 306 306 307 307 306 306 307 307 307 307 307 307 308 308 308 309 309 309 309 311 312 312 312 312 312 314 317 316 313 314 316 314 314 313 312 312 312 313 312 314 314 314 315 315 315 317 317 316 315 315 317 314 311 312 312 313 315 314 314 314 314 312 311 313 314 313 311 310 310 311 312 312 312 311 310 309 308 307 307 308
306 307 306 306 306 306 306 306 306 306 307 308 308 308 308 308 307 308 308 308 308 308 308 309 309 310 310 311 312 312 312 312 312 316 318 316 314 315 315 313 313 312 312 312 312 312 313 313 314 314 315 315 314 317 318 316 316 316 316 314 312 314 313 312 314 313 313 314 314 313 310 311 313 312 311 312 313 313 313 314 313 312 310 309 309 309 308 308
306 307 307 306 306 306 306 306 306 306 306 308 308 309 310 310 309 309 310 309 309 309 309 309 310 311 311 312 313 313 312 312 313 315 316 316 316 315 314 313 313 312 312 312 312 312 313 313 314 313 314 314 314 316 317 316 316 316 316 314 314 314 312 311 312 313 312 312 314 313 309 310 312 311 311 312 313 314 313 313 313 312 311 310 310 309 309 309
307 307 307 306 306 306 307 306 306 306 306 307 307 308 309 309 310 310 311 311 310 310 310 310 312 312 313 313 314 313 312 314 314 314 315 315 315 315 314 313 313 313 312 312 313 313 313 313 313 313 315 314 313 314 315 315 316 315 315 314 315 313 313 313 311 312 311 310 312 312 310 311 311 309 310 311 313 315 313 311 310 310 310 309 309 309 309 309
307 307 306 306 306 306 307 307 306 306 306 307 307 308 308 308 309 309 310 312 311 311 311 312 313 313 313 314 314 314 313 315 314 312 315 315 315 314 313 314 313 313 312 312 313 313 314 313 313 314 314 313 314 314 313 313 314 315 314 314 314 312 314 314 311 312 310 309 311 311 311 312 310 309 310 311 313 313 310 308 308 308 308 308 308 308 309 309
308 308 307 305 306 306 306 307 307 307 307 307 308 308 309 310 309 309 310 312 312 312 312 313 313 313 313 314 315 315 312 313 312 312 314 315 315 314 313 314 314 313 312 312 313 313 314 313 313 314 313 313 312 313 313 312 312 315 314 312 313 313 314 314 311 312 310 309 311 311 311 310 310 311 309 310 311 309 306 307 307 307 307 307 307 308 307 307
309 309 307 306 306 307 306 307 307 307 308 308 309 309 310 311 311 310 311 312 312 312 313 313 313 313 313 313 314 315 314 313 313 314 315 315 315 314 313 313 313 314 313 313 313 314 314 313 313 313 313 313 312 312 311 312 313 314 314 313 312 311 313 313 311 311 309 310 311 309 309 309 312 311 308 309 308 305 306 308 307 307 307 307 307 307 307 307
310 309 308 306 306 307 307 307 308 308 309 309 309 310 310 311 312 311 311 312 312 313 313 313 314 313 313 313 315 315 314 315 314 316 317 317 316 314 313 313 314 313 313 313 313 314 314 313 313 312 314 313 311 312 309 311 314 314 314 313 311 310 312 312 309 309 308 309 309 307 309 310 311 310 309 308 306 304 307 307 307 307 307 306 305 305 306 306
311 311 310 308 306 306 307 308 308 308 308 309 310 310 310 311 312 311 312 312 313 313 313 314 314 313 312 313 314 313 312 315 316 316 316 317 316 314 313 313 314 314 313 312 312 314 313 313 312 311 313 311 310 311 309 312 314 312 313 312 311 311 311 310 309 309 308 308 307 309 312 311 307 308 309 307 304 305 307 306 306 306 306 305 304 305 306 305
311 311 310 309 308 306 307 308 309 309 308 309 309 309 309 311 312 312 312 313 313 313 314 314 314 313 312 313 314 312 313 317 319 318 318 317 317 314 313 314 314 314 313 312 312 313 313 313 312 311 312 311 310 310 309 311 312 311 311 311 311 311 310 309 310 309 308 308 307 310 313 310 306 308 311 307 303 306 307 306 305 305 305 303 303 304 305 305
312 311 311 311 310 307 307 310 310 309 309 309 309 310 310 312 312 312 313 313 313 314 315 315 314 314 313 312 313 313 314 319 321 320 319 318 317 316 315 315 315 314 313 312 312 312 312 312 310 311 313 311 310 310 309 309 309 309 309 311 311 311 311 310 310 309 308 309 307 309 311 309 308 310 311 306 303 306 308 307 305 305 305 303 303 304 304 304
312 311 311 312 312 310 308 310 311 311 311 310 310 310 311 313 313 313 313 314 314 316 316 316 315 314 313 312 313 313 313 316 319 318 318 317 317 316 316 315 314 313 312 313 312 312 312 311 310 312 312 311 312 311 310 308 308 309 309 313 314 313 314 311 309 308 309 310 306 308 311 311 311 310 309 306 305 307 308 307 306 305 304 304 303 303 304 304
312 313 313 312 312 311 310 311 312 312 313 312 311 311 313 313 313 314 315 316 316 317 317 317 316 313 313 314 312 312 312 315 318 318 316 316 315 315 315 314 313 312 312 313 312 312 311 311 311 312 310 311 313 310 309 307 307 310 310 312 314 315 315 311 309 308 310 310 305 308 314 313 311 308 309 307 305 307 309 307 306 305 304 303 303 303 303 303
311 312 312 311 311 311 311 311 312 313 314 313 312 313 314 314 315 316 317 317 318 318 317 316 316 313 313 314 312 312 312 313 316 317 316 315 314 314 313 313 313 313 313 313 312 311 311 310 311 311 310 310 311 309 310 310 310 312 311 312 314 316 315 312 309 310 312 309 305 310 315 315 311 308 308 306 304 307 309 307 305 304 304 303 303 303 303 303
311 311 311 311 310 310 311 311 312 314 314 314 314 315 316 316 317 318 317 317 317 318 316 315 315 314 314 314 312 313 314 313 315 315 315 314 314 314 313 312 313 313 313 313 313 311 310 311 312 312 310 308 309 311 313 313 312 312 313 315 316 314 315 315 309 308 312 309 307 312 315 316 312 308 308 305 306 309 308 306 305 304 303 303 303 302 303 303
311 311 311 311 311 310 311 311 312 313 313 315 316 317 317 317 317 318 317 316 316 316 315 314 313 313 314 314 313 314 314 316 317 316 314 313 314 314 312 312 312 312 312 312 312 311 311 312 311 311 310 310 312 314 314 315 315 313 314 316 317 315 316 315 310 307 310 310 310 312 314 317 312 307 307 305 306 308 307 306 304 303 303 302 303 302 302 303
311 311 312 313 312 311 311 311 312 313 313 315 317 318 318 318 317 316 315 315 315 316 315 314 313 314 314 313 312 313 313 314 316 317 315 313 314 314 312 311 310 311 311 311 311 311 312 311 310 310 311 312 313 314 315 316 316 315 315 315 316 315 314 314 313 310 309 311 313 312 313 316 312 307 307 306 306 308 307 306 304 303 303 302 302 302 302 302
312 313 314 314 313 312 312 312 313 314 314 316 318 318 317 317 316 315 315 315 314 314 314 314 313 314 314 313 312 313 312 313 315 317 315 314 313 313 313 311 310 312 312 312 312 312 312 311 311 314 313 312 313 315 316 317 316 317 316 316 315 314 313 314 314 311 310 312 314 313 313 315 314 309 307 306 305 307 307 305 304 303 302 302 302 302 301 301
314 314 314 314 314 313 312 312 313 314 315 317 318 316 315 315 316 316 316 316 315 315 315 315 315 314 315 314 312 312 312 313 315 316 314 313 312 312 312 312 312 313 313 314 314 312 312 313 313 316 316 314 314 315 317 318 317 316 316 316 316 315 314 314 314 310 310 313 314 314 314 315 316 313 308 306 305 306 305 304 304 303 302 302 301 301 301 300
314 314 315 315 316 315 313 313 314 314 315 316 316 315 315 316 317 317 316 316 316 316 316 316 316 315 315 313 312 312 312 313 314 314 313 312 312 312 311 311 313 313 313 316 315 311 311 316 317 317 318 316 315 315 315 315 314 314 315 316 315 315 315 315 314 309 308 312 314 314 314 314 315 313 308 306 306 306 305 304 304 303 302 302 301 301 300 299
313 315 317 316 316 316 315 314 314 315 315 316 316 316 317 317 317 316 316 317 317 316 316 316 315 315 315 312 311 312 313 313 313 313 312 311 312 313 312 311 314 314 314 315 313 310 311 316 318 317 316 314 313 314 313 312 312 313 314 315 315 316 315 314 312 309 308 311 314 313 312 314 314 312 307 305 307 306 305 305 303 302 301 301 301 300 300 299
315 316 316 315 317 318 316 315 316 316 316 317 317 317 318 318 316 315 316 318 319 317 316 315 314 314 314 312 311 313 315 315 314 313 312 310 311 313 312 312 314 315 313 312 313 313 314 316 317 315 312 311 310 310 311 312 312 313 313 314 316 316 315 314 312 309 308 311 315 313 312 315 313 309 306 305 305 304 302 302 302 301 301 300 300 300 300 299
315 316 315 314 317 318 317 316 317 317 316 317 318 317 317 318 316 315 316 318 319 317 315 315 315 315 315 314 312 312 315 317 316 314 312 310 311 312 312 313 314 314 312 313 315 317 317 316 315 313 310 310 311 309 309 311 312 313 314 315 317 316 316 318 314 310 309 310 313 313 313 315 313 308 305 304 302 302 300 300 300 300 300 300 299 299 299 299
314 316 316 315 317 318 317 316 317 317 317 317 317 318 318 318 316 316 318 319 320 318 315 315 316 316 317 315 314 313 315 316 316 315 312 311 311 311 312 313 313 313 313 313 315 317 319 315 311 311 310 312 313 311 311 313 315 315 314 315 318 316 316 318 315 311 311 310 310 312 315 317 315 311 308 303 301 301 300 300 300 299 299 298 298 298 298 298
314 315 316 316 318 318 317 317 317 317 317 317 317 317 318 318 315 315 317 320 321 318 315 315 316 317 317 315 314 314 315 316 316 315 311 311 312 311 311 312 313 315 315 313 313 316 318 312 310 312 311 312 315 314 314 316 318 318 316 315 316 316 316 315 314 312 315 316 312 312 319 320 315 313 310 305 304 303 301 301 301 300 299 298 299 298 297 297
316 315 315 316 318 318 316 318 318 317 318 317 317 317 319 319 316 314 316 320 321 318 316 316 318 318 316 315 314 313 317 316 312 311 311 311 311 312 313 312 312 315 314 313 314 316 315 310 311 315 314 313 315 315 315 315 318 320 317 315 314 315 315 315 314 314 318 319 312 310 318 320 316 315 311 306 306 304 302 302 301 300 299 299 299 298 298 297
317 316 315 317 318 317 316 318 318 318 318 318 316 317 320 319 315 313 315 322 323 320 318 315 315 317 314 313 313 316 319 315 310 309 309 310 311 312 314 314 313 312 311 313 318 317 313 311 312 315 316 316 316 316 315 314 317 320 316 314 314 314 315 314 314 316 317 317 314 311 315 318 319 317 310 306 307 305 303 303 301 300 300 299 299 298 297 297
319 318 316 317 317 316 316 317 318 318 318 318 317 318 320 318 314 314 318 325 323 319 318 314 311 312 311 310 311 314 313 312 315 312 306 308 310 311 315 315 315 314 310 315 322 317 313 314 314 314 315 316 317 317 314 313 317 318 312 311 312 313 314 314 314 315 314 315 318 316 314 317 320 316 308 306 309 307 305 304 302 301 300 300 299 298 297 296
319 319 318 317 317 316 316 317 318 318 318 318 319 319 319 316 314 316 320 324 322 317 315 314 311 311 311 311 311 310 307 308 314 311 306 308 309 310 313 313 313 314 310 313 320 317 311 311 312 314 316 316 315 312 311 315 317 313 309 310 311 311 312 313 314 315 313 315 321 319 315 317 320 318 312 309 310 310 308 305 303 302 301 300 299 298 297 295
318 319 318 318 318 316 316 318 318 319 318 318 320 318 316 314 315 322 323 325 324 318 312 312 312 312 313 315 314 310 308 309 308 308 308 309 309 308 310 309 310 314 312 312 316 314 308 306 308 313 314 312 310 306 307 313 313 309 310 312 312 311 311 311 312 313 315 318 319 316 315 317 319 319 317 313 311 311 309 305 303 302 301 300 299 298 297 296
318 318 319 319 318 317 317 317 318 319 319 318 317 315 315 317 320 326 326 324 322 317 312 312 312 312 315 318 318 312 309 309 308 310 311 310 310 310 311 312 313 314 316 315 315 313 309 309 311 311 310 309 309 307 306 307 307 309 313 314 315 314 312 313 313 313 319 322 315 309 310 314 318 319 315 312 308 308 308 306 303 302 301 301 299 298 297 296
318 318 319 319 318 317 317 317 318 320 319 316 315 314 318 323 324 327 324 319 321 319 316 315 312 313 316 318 318 313 310 310 309 311 312 311 313 313 314 317 317 318 320 319 318 315 314 314 312 310 307 308 312 312 308 307 307 311 313 314 318 319 316 318 318 315 320 319 311 307 310 313 317 317 313 310 307 306 306 305 304 303 302 301 300 298 297 296
319 318 318 318 317 317 316 317 319 320 317 314 315 317 322 325 326 325 321 320 321 318 315 315 311 313 316 317 315 311 311 312 310 310 311 312 314 314 315 315 315 319 320 319 319 317 317 316 312 312 310 309 313 315 314 312 310 312 314 316 320 321 320 322 319 316 318 315 308 307 310 314 316 315 311 308 306 303 303 303 304 303 302 301 300 298 297 296
319 318 317 317 317 317 316 317 319 319 315 314 318 322 324 326 326 325 323 321 320 314 312 313 311 313 315 316 314 312 313 313 310 311 311 311 314 316 315 313 312 315 316 317 319 319 322 320 314 314 313 311 313 315 316 315 312 312 314 316 318 319 321 323 320 319 319 314 308 307 311 316 317 312 306 303 301 300 300 300 302 303 302 301 299 298 297 296
319 318 317 316 316 317 316 316 319 319 315 315 321 324 325 326 325 325 324 321 319 314 311 311 312 315 316 315 311 311 314 314 311 311 312 313 315 316 316 314 311 312 315 319 319 317 321 320 313 310 309 309 313 314 313 314 314 312 311 313 316 317 317 316 314 314 314 314 312 310 313 315 312 307 301 300 300 299 299 300 300 302 301 300 299 298 297 296
318 317 317 316 316 316 316 317 319 318 316 318 323 324 325 325 324 325 323 320 319 315 312 312 314 316 317 315 312 311 313 313 311 312 313 313 314 315 316 316 312 311 315 319 318 315 318 317 311 308 307 307 309 310 310 314 315 311 311 314 314 313 313 313 311 309 310 316 317 313 314 313 311 308 303 301 302 301 300 300 300 301 301 300 299 298 298 297
318 317 316 316 315 316 316 317 318 316 316 320 324 324 325 325 324 325 322 318 315 313 314 317 317 316 317 316 315 313 313 313 312 313 314 313 314 314 313 314 313 312 313 315 316 316 317 316 311 310 311 307 304 307 309 311 313 312 313 316 313 311 313 314 316 314 313 319 318 313 315 315 314 314 307 303 305 304 302 301 301 301 300 299 300 299 299 298
317 316 316 316 316 315 315 317 317 315 317 322 324 324 325 324 322 321 318 315 313 314 317 320 319 318 318 317 316 313 314 315 313 313 315 314 315 315 313 314 313 311 311 312 314 315 316 317 313 308 311 308 304 309 311 310 310 311 312 312 313 315 315 314 316 318 318 319 317 313 313 313 315 315 310 307 307 306 304 302 301 301 300 300 300 300 299 298
316 316 317 316 315 315 316 316 316 316 319 323 323 323 324 323 320 317 316 316 317 317 318 320 320 319 318 317 317 314 313 316 313 313 315 315 315 314 312 314 314 312 310 310 312 314 313 317 316 309 308 308 307 311 313 312 309 308 309 310 311 313 315 315 314 315 317 318 316 314 313 313 314 314 313 312 310 308 305 302 302 302 301 300 300 300 299 298
315 317 317 315 315 316 315 316 316 317 320 321 322 321 321 320 317 315 314 316 320 319 320 323 322 320 318 316 316 315 314 315 313 313 316 315 315 313 311 313 314 312 311 310 312 314 313 316 317 311 308 310 311 313 314 314 311 310 311 312 311 310 311 313 313 312 314 316 316 316 316 315 312 311 312 312 310 308 307 304 303 302 301 301 301 301 300 298
315 319 317 313 315 316 315 316 317 319 320 320 320 319 318 318 317 316 314 315 318 317 318 322 323 322 321 317 317 316 316 316 313 313 316 314 314 316 313 312 313 312 310 310 312 314 314 314 316 314 311 312 313 311 309 311 312 313 313 313 313 313 312 315 315 312 311 314 315 315 317 316 310 306 307 308 306 307 306 305 304 303 302 302 301 301 300 298
317 320 315 312 315 316 315 318 318 318 320 320 319 318 316 317 317 316 315 315 317 317 317 319 320 322 323 320 319 318 318 318 315 314 317 315 316 318 312 309 312 311 310 312 313 315 314 313 315 315 312 312 311 306 303 305 308 311 312 313 314 314 314 316 318 314 311 312 312 312 315 316 308 303 303 304 303 303 304 304 304 303 302 302 301 300 299 298
318 317 310 309 314 315 317 319 317 318 319 317 317 317 316 316 316 316 316 316 317 317 318 319 319 319 320 319 319 319 318 319 317 317 319 319 316 313 308 308 310 310 311 313 314 314 313 314 315 314 312 310 308 306 305 305 307 311 312 311 313 314 315 317 316 313 313 313 312 313 316 315 309 304 302 301 301 301 302 303 303 302 301 300 300 299 298 297
312 310 307 307 310 313 319 320 317 317 317 314 315 315 314 314 315 315 315 317 317 316 318 318 317 318 318 316 318 318 318 319 318 318 319 319 315 307 305 308 311 312 314 314 314 313 313 315 316 315 315 314 312 312 311 309 309 312 312 310 312 314 314 315 313 311 313 315 315 315 316 314 310 306 303 300 300 301 301 301 301 301 300 299 299 298 297 297
310 309 308 307 307 310 316 316 315 316 315 314 315 315 314 313 312 313 314 315 315 315 317 316 315 316 316 315 316 316 316 318 318 317 316 316 312 307 306 308 312 314 313 312 314 315 314 317 317 316 318 319 318 317 315 313 312 311 311 310 311 313 313 314 314 313 314 315 314 315 315 313 310 307 305 302 302 302 301 299 299 300 300 299 299 299 298 297
315 312 309 308 308 309 311 311 314 316 314 314 314 314 314 313 310 310 313 314 312 312 314 313 312 314 314 314 316 316 314 315 316 316 315 315 312 308 305 307 310 312 311 311 315 317 316 317 317 317 318 317 317 315 313 315 315 313 312 311 311 311 312 313 314 315 315 314 313 314 315 314 311 308 307 306 305 304 301 299 299 299 300 299 299 299 298 297
316 314 310 309 310 309 308 309 312 315 313 313 313 311 312 312 310 309 310 311 311 310 310 310 310 313 313 313 314 314 312 313 313 313 314 314 312 308 306 307 308 309 310 312 315 317 317 316 316 317 316 315 315 313 313 315 315 314 315 314 311 310 312 314 315 315 315 315 315 314 313 314 313 310 309 309 308 306 303 301 301 300 300 299 299 299 298 298
312 313 310 310 312 311 309 309 311 312 312 313 311 310 311 310 310 310 309 307 308 309 310 310 308 310 311 311 313 314 312 312 312 312 311 312 312 311 310 310 308 308 311 312 313 315 316 315 315 316 315 314 313 312 311 312 313 313 314 314 312 310 311 313 314 313 314 315 316 313 311 313 312 310 309 308 308 309 307 304 302 301 300 299 298 298 298 298
306 309 307 307 311 311 310 310 310 311 312 312 310 309 310 310 310 309 307 306 307 307 309 311 310 309 309 309 312 313 312 313 313 312 311 311 311 311 312 312 309 307 310 313 313 314 315 315 314 313 314 314 310 308 309 310 312 312 311 311 311 310 310 311 312 312 313 314 314 312 311 311 310 309 309 308 307 307 306 303 301 300 300 299 298 298 298 298
305 307 306 306 307 308 308 308 309 310 310 310 310 309 309 310 310 308 307 307 309 307 308 310 310 308 307 308 310 312 312 312 313 312 310 310 310 310 311 313 311 308 309 311 311 311 312 313 312 311 314 313 307 306 308 309 311 313 311 311 310 309 309 311 312 312 312 312 312 311 311 311 309 307 307 307 306 305 304 302 301 300 300 299 299 299 299 299
299 300 303 307 307 305 307 307 307 309 310 309 310 309 309 310 309 308 307 307 309 309 308 309 309 308 307 308 309 310 310 310 311 312 310 310 311 311 311 312 312 310 309 309 310 311 310 311 310 310 315 313 306 305 307 307 308 310 311 311 309 308 309 310 311 311 312 312 311 311 312 311 308 305 305 305 304 304 304 303 302 301 300 299 299 299 299 298
298 298 302 308 308 304 305 306 306 309 309 309 309 308 308 309 308 308 309 307 307 308 308 308 309 308 308 309 308 310 312 312 312 311 310 311 312 313 312 311 312 311 309 308 308 309 309 310 309 311 314 311 304 303 307 309 310 311 310 310 309 308 308 309 309 310 309 310 311 312 311 309 306 304 304 304 303 303 303 303 302 301 300 298 298 299 298 298
Wind_Speed
5 5 5 4 4 4 3 3 3 2 2 2 2 2 2 2 2 2 1 1 1 1 1 3 3 4 5 6 8 9 11 11 8 8 5 2 2 5 4 4 4 3 3 3 2 2 3 4 5 4 2 3 3 1 1 2 2 1 1 0 1 1 1 3 4 3 1 2 2 1 1 2 2 2 1 2 5 5 5 5 3 2 5 7 8 8 10 12
5 5 5 5 4 4 4 4 4 3 2 2 2 2 2 1 1 1 1 0 0 1 2 3 3 4 5 7 8 10 12 10 6 9 7 3 5 6 4 4 4 4 4 2 2 2 2 3 3 3 2 1 2 1 0 1 2 1 1 1 1 2 1 1 2 2 1 1 1 0 1 2 2 2 2 5 5 3 5 3 2 4 7 7 10 11 11 13
4 4 4 4 3 3 4 4 4 3 2 2 2 2 2 1 1 1 0 1 1 1 2 2 3 4 5 7 8 10 12 6 3 6 6 5 6 6 5 5 5 4 3 2 2 3 3 4 3 1 1 2 2 1 0 2 2 0 0 1 2 2 0 2 3 2 2 1 3 1 2 2 2 1 1 5 9 6 3 2 1 1 4 6 8 10 10 11
4 4 4 3 3 2 2 3 3 3 2 2 2 2 2 1 1 0 0 1 1 1 2 2 3 4 5 6 6 9 10 3 3 2 3 5 5 5 4 5 4 4 3 2 4 5 6 6 4 2 1 2 2 0 1 3 2 1 1 1 4 2 1 3 5 3 2 2 3 1 1 3 1 1 3 4 8 4 2 5 6 4 6 6 6 9 10 11
5 4 4 4 3 3 3 3 2 3 3 2 2 2 2 2 2 1 1 1 2 2 2 3 3 4 5 5 5 7 8 2 3 2 2 4 4 5 4 5 4 3 3 4 6 6 5 4 3 2 1 1 1 0 1 3 2 1 1 2 4 2 1 3 3 2 1 2 2 3 3 1 2 2 3 4 5 3 4 6 6 5 6 5 6 8 9 12
5 4 5 5 4 4 4 3 3 3 3 3 2 2 3 2 2 2 1 1 2 2 2 3 3 4 4 4 4 5 4 2 2 4 2 3 4 4 4 4 3 3 2 3 6 4 3 2 0 1 1 1 1 1 2 2 2 1 1 1 2 2 2 1 2 2 3 3 4 3 2 1 3 2 2 4 3 5 6 5 6 6 5 4 5 8 10 11
5 4 4 5 5 5 4 4 4 3 3 3 3 3 3 2 2 2 1 1 2 2 3 3 3 3 3 3 3 3 1 2 2 5 4 4 4 3 4 4 3 2 1 2 4 2 2 1 0 2 1 1 1 1 2 1 1 3 0 2 2 2 4 1 1 2 4 6 4 1 1 4 5 2 2 2 3 6 6 6 7 6 6 6 8 10 10 10
5 4 4 5 6 5 5 5 4 4 4 4 4 3 3 2 2 2 2 2 2 2 2 3 3 2 1 2 2 2 0 2 2 4 5 5 4 4 5 4 3 2 2 2 3 2 2 1 1 2 1 1 1 2 1 1 2 2 1 2 2 3 5 4 3 4 5 7 3 2 5 4 3 1 3 2 5 5 4 5 5 6 8 9 10 11 10 11
6 5 5 5 5 6 6 5 5 5 5 5 5 5 4 3 2 3 2 2 2 2 2 2 2 1 1 2 2 2 1 2 2 4 4 5 5 5 5 4 3 3 3 3 3 4 3 1 2 3 0 2 2 2 1 3 1 1 0 0 2 2 4 4 5 5 5 4 2 4 5 2 1 1 3 5 5 4 4 5 6 7 9 10 9 10 10 11
7 6 6 5 5 6 5 5 6 6 6 6 6 5 5 4 3 3 2 2 2 2 2 1 1 0 2 3 1 3 1 3 2 3 3 4 5 6 6 5 4 4 4 3 4 4 2 2 3 2 1 3 2 1 1 2 1 1 1 2 5 4 4 4 5 3 3 4 4 6 4 4 2 2 3 5 4 4 5 6 6 7 9 8 7 7 8 9
8 7 6 5 6 6 6 6 6 6 6 6 6 6 5 3 3 3 2 2 1 1 2 0 0 1 2 3 3 3 2 3 3 3 3 4 5 6 6 5 4 5 5 4 4 4 2 4 7 3 1 3 4 2 1 0 2 1 2 4 6 5 5 4 3 2 2 2 4 6 2 4 3 2 2 5 4 3 4 7 7 7 7 6 6 6 6 7
9 8 6 6 6 6 6 6 6 6 5 5 6 5 4 3 3 2 2 2 1 1 1 1 2 3 3 1 4 4 3 4 4 4 4 4 5 5 5 5 5 5 5 3 5 5 3 8 9 2 1 3 3 2 2 2 0 0 2 5 6 7 5 1 1 0 1 0 2 4 3 4 5 3 3 5 2 3 5 6 6 6 5 5 5 4 5 7
10 9 8 7 7 7 7 6 6 5 5 5 5 4 3 3 2 2 1 1 1 1 1 2 3 4 2 1 3 5 6 6 5 4 5 4 4 4 5 6 6 5 4 4 7 7 6 8 6 3 2 2 1 2 3 3 1 1 0 3 6 7 2 2 1 1 2 0 2 3 4 3 7 4 4 5 1 3 3 5 4 4 4 4 4 4 5 7
11 11 10 8 7 7 7 6 5 3 4 5 4 3 3 2 2 2 1 1 1 2 2 3 4 5 2 2 2 4 7 7 6 5 5 5 5 5 6 6 6 5 5 5 8 8 7 8 6 6 2 2 2 4 3 2 0 1 1 1 3 4 1 4 1 3 2 0 1 4 5 1 8 4 5 6 1 3 2 4 4 3 3 3 3 4 4 6
11 12 11 8 7 7 7 5 5 4 4 3 2 3 2 3 2 2 2 2 2 3 3 4 5 5 1 3 2 3 6 7 8 8 7 7 8 6 7 8 8 7 6 6 9 9 8 8 6 4 2 2 3 4 1 1 1 0 2 3 2 2 2 2 3 2 2 1 0 4 5 1 8 5 5 5 1 3 4 4 3 3 3 3 3 3 3 5
12 12 10 6 6 6 6 6 5 5 5 3 2 3 3 3 3 3 4 3 4 5 4 4 6 4 2 2 2 3 4 5 7 9 9 10 9 8 11 11 10 9 9 10 11 11 8 6 2 1 1 2 3 3 1 3 2 2 3 4 2 3 4 1 3 1 2 1 0 2 5 4 5 5 3 3 1 3 5 4 3 3 3 3 2 3 3 4
11 9 7 6 7 6 5 7 5 5 4 4 3 3 4 4 4 5 6 6 6 5 4 5 6 3 2 1 2 3 4 5 7 9 11 10 9 12 14 9 7 9 11 10 9 7 4 3 1 1 1 1 2 3 2 5 4 2 2 3 3 3 4 2 2 2 2 2 2 2 5 8 3 7 3 4 2 2 4 4 3 3 2 2 2 3 3 4
10 8 7 8 7 5 5 7 5 4 3 3 3 5 5 5 5 6 8 9 8 6 3 4 5 2 4 4 3 2 5 6 8 9 10 10 11 14 11 6 6 9 10 6 3 2 1 1 0 2 2 2 4 5 5 5 5 3 2 3 3 3 5 5 3 1 1 2 4 3 6 10 5 7 5 4 2 1 3 3 2 3 2 2 2 3 4 4
10 9 8 7 6 5 5 6 5 3 2 2 5 8 7 5 4 4 6 5 4 3 1 4 6 2 1 3 3 5 7 8 8 8 9 11 12 11 8 7 7 6 6 4 2 2 1 2 1 3 5 6 7 9 9 5 3 4 3 4 5 5 6 5 2 1 0 4 6 8 9 11 10 3 6 4 3 2 3 3 2 2 2 2 2 3 3 4
12 11 8 6 7 5 4 6 6 3 4 3 7 9 4 3 2 2 4 4 6 3 1 4 6 1 1 2 5 8 8 7 4 5 10 12 13 10 6 5 4 3 4 4 4 2 1 4 6 7 7 8 10 12 9 2 2 1 2 4 6 7 7 5 0 3 1 4 6 8 8 11 13 3 6 3 2 3 2 2 2 2 2 2 2 3 3 4
13 12 9 8 9 7 4 5 7 5 5 4 7 5 1 3 2 1 2 6 10 8 3 2 3 3 0 3 9 10 6 3 1 4 11 12 12 9 4 4 5 5 3 2 4 2 2 6 10 9 4 2 5 8 5 2 2 3 4 5 6 7 7 4 1 2 2 3 5 4 6 11 10 1 5 3 3 2 2 1 2 2 2 2 2 3 3 3
14 12 11 9 11 9 5 3 9 7 5 5 6 4 3 1 1 1 0 4 7 10 8 3 2 5 2 3 9 9 2 3 3 5 11 11 8 6 4 6 7 5 4 4 4 3 4 8 11 6 3 4 2 2 5 6 6 5 4 5 6 5 4 4 2 1 2 3 4 1 5 10 5 4 4 3 3 3 2 2 2 1 1 2 2 2 3 3
15 13 12 10 12 12 5 4 10 8 7 7 6 5 2 1 2 2 1 3 3 5 6 6 6 8 6 3 7 9 5 5 6 7 12 11 5 3 6 8 7 4 6 8 8 5 5 6 8 4 6 4 3 3 5 4 5 6 5 6 7 2 1 5 2 2 2 2 3 3 6 10 3 5 4 4 3 4 3 3 2 1 1 2 2 2 2 3
15 15 14 12 14 12 6 7 9 8 9 9 11 12 4 3 3 2 1 3 4 2 3 5 5 6 8 5 9 13 7 4 4 7 15 14 6 3 6 7 6 5 7 12 11 9 5 1 1 5 7 8 6 5 6 5 5 6 7 8 8 3 5 8 1 1 3 2 1 3 7 8 3 3 3 4 3 3 3 3 3 2 2 2 2 2 2 2
15 15 16 15 16 13 11 10 9 9 9 8 13 16 9 2 3 2 1 2 4 2 0 4 4 5 8 7 11 11 3 3 2 4 14 14 6 5 4 2 4 8 10 9 8 9 5 3 5 6 6 7 8 6 7 7 6 5 8 11 11 9 9 7 1 2 5 3 2 2 6 3 2 3 4 4 4 4 3 3 4 3 3 3 3 3 3 2
19 16 16 19 18 16 13 8 9 10 9 10 13 12 12 8 4 3 2 2 5 3 3 5 5 7 9 7 9 8 1 4 1 4 11 11 4 4 3 3 1 5 7 6 3 5 2 3 4 5 5 6 7 7 6 7 6 5 3 7 11 10 7 5 4 3 4 2 1 1 5 3 1 2 5 5 5 5 4 4 4 4 4 4 4 4 4 4
24 20 17 18 18 19 12 5 10 13 7 10 12 11 12 11 8 4 2 3 6 3 5 2 2 5 8 5 6 8 2 3 4 4 5 6 4 2 3 6 3 1 4 4 3 2 4 5 3 5 6 6 6 6 6 9 7 3 1 2 6 8 7 7 7 6 3 2 1 3 2 4 5 2 4 5 5 5 5 6 6 5 5 5 4 4 4 3
25 23 20 19 20 19 13 7 12 16 12 8 9 13 13 12 10 4 1 4 4 4 4 1 1 3 4 3 2 3 0 1 4 2 2 2 3 1 4 8 7 6 5 5 6 2 3 6 6 8 6 6 6 2 7 12 7 1 2 2 3 4 5 5 5 4 1 2 4 5 4 3 6 2 3 3 4 5 7 8 8 8 8 7 6 5 4 3
25 24 23 23 23 21 17 12 12 16 18 11 7 14 15 13 9 1 0 5 2 4 2 2 4 2 4 5 2 3 2 2 1 1 2 2 2 2 3 4 4 7 3 3 5 1 1 3 4 7 6 5 3 3 3 9 5 3 5 5 6 4 4 3 3 3 2 3 7 6 8 5 5 3 3 3 4 6 8 8 9 9 9 8 7 7 5 4
26 26 26 26 23 23 22 16 14 15 16 12 10 16 17 10 5 3 3 5 2 3 2 2 3 2 8 9 3 1 2 2 2 3 2 2 3 3 0 1 3 5 2 2 3 1 2 1 1 3 2 2 5 5 2 1 2 5 6 6 6 5 4 2 1 1 2 5 5 2 6 5 4 3 4 3 1 4 8 9 8 10 10 10 8 7 7 6
27 27 29 29 25 24 20 13 17 17 12 13 15 18 13 3 1 5 6 2 0 2 3 3 2 4 11 10 4 3 3 2 3 6 5 3 3 3 3 3 3 3 2 3 3 1 1 1 1 1 1 3 6 5 4 3 2 3 3 4 5 3 3 2 2 2 5 5 1 2 1 4 5 3 1 2 1 3 8 10 12 14 12 11 9 8 8 6
29 29 31 31 27 27 22 15 20 19 12 17 19 12 6 2 2 7 4 2 1 4 4 4 3 7 10 5 2 4 4 2 4 5 5 5 6 7 6 6 6 4 4 7 5 2 2 4 2 2 0 3 5 6 4 2 1 2 3 5 5 3 3 3 3 3 5 2 2 2 1 4 6 5 1 3 3 2 4 7 13 16 14 12 11 9 8 6
31 31 33 32 29 29 26 22 23 20 18 21 15 4 2 5 8 9 7 4 1 1 3 4 3 6 8 5 3 4 2 2 5 4 2 3 5 7 4 2 3 2 2 5 6 3 3 2 3 4 2 4 8 6 4 4 5 6 6 6 5 4 3 4 3 2 3 1 2 1 2 3 4 4 1 3 4 1 0 1 7 14 15 13 11 9 8 7
32 32 33 33 31 31 29 26 23 23 24 20 9 3 4 8 9 8 9 6 1 3 3 4 6 6 7 4 3 6 3 2 7 5 3 4 5 7 6 5 5 1 2 3 4 5 5 3 5 7 3 5 10 5 1 5 7 5 2 1 3 3 3 4 3 2 2 2 2 1 2 3 3 1 2 2 2 1 1 1 2 7 10 10 9 9 8 8
32 33 33 33 33 33 33 29 26 27 26 14 5 6 8 11 8 5 7 5 2 2 3 3 7 7 6 2 1 5 3 1 6 5 4 6 6 7 7 7 8 5 3 5 3 4 5 4 2 2 1 3 7 2 2 5 5 2 1 0 3 2 1 1 1 1 2 1 2 3 3 2 1 2 1 1 0 1 2 2 4 6 8 8 8 8 9 8
34 34 32 32 33 35 35 31 30 31 24 10 5 8 11 11 5 3 5 5 4 7 8 4 4 5 5 3 3 6 2 1 6 6 4 5 5 5 4 5 9 10 7 6 3 3 3 1 2 2 1 1 0 1 1 0 3 3 2 4 2 2 1 2 0 2 1 4 3 4 4 2 1 2 3 2 1 2 3 4 7 9 9 9 8 9 9 8
35 31 28 29 33 36 38 35 32 29 17 6 8 11 9 7 3 3 3 3 4 9 10 6 6 7 7 5 5 8 5 3 6 6 5 4 4 6 6 4 8 13 11 4 1 3 3 1 2 1 1 2 3 1 3 3 1 4 4 4 3 1 1 1 2 0 2 6 3 4 7 5 4 3 3 4 5 6 7 7 7 9 10 11 10 10 9 8
33 24 19 26 36 37 38 38 33 22 8 4 11 13 7 4 2 2 3 2 4 8 8 8 7 7 7 7 6 10 9 6 7 6 5 5 4 7 11 6 6 13 12 3 0 2 3 2 2 1 0 2 1 2 3 2 2 1 2 1 2 2 2 2 3 2 3 5 3 3 5 5 6 4 4 8 10 10 9 8 9 12 13 13 12 11 10 9
25 13 7 19 35 38 40 40 28 13 3 6 13 13 6 3 1 2 2 1 3 6 9 8 6 4 5 6 5 9 11 8 9 8 6 6 4 6 10 5 4 10 10 6 3 1 1 3 2 2 1 1 1 4 5 5 1 2 1 2 0 2 1 2 2 1 3 4 3 2 2 4 6 6 9 12 12 12 12 10 12 14 15 14 12 12 12 10
14 5 2 16 32 38 42 35 16 6 5 8 11 8 2 2 1 2 0 0 2 3 4 5 6 4 4 5 3 6 8 8 9 7 5 6 5 5 7 4 4 5 3 3 3 1 2 3 3 3 0 2 4 4 5 6 5 4 5 5 3 1 0 1 1 1 1 3 3 4 4 3 3 2 5 6 5 8 12 12 12 12 14 15 13 12 11 10
7 5 3 20 35 38 35 20 6 5 7 8 8 6 2 1 2 2 1 1 1 1 1 1 4 3 3 4 3 4 6 6 7 5 4 7 5 3 3 2 4 7 5 3 4 4 3 2 3 4 3 5 3 1 1 2 2 3 6 7 7 5 3 3 4 2 0 3 2 3 5 2 3 2 2 2 3 2 7 8 9 11 14 15 13 11 10 9
6 5 3 22 40 38 23 8 4 4 5 7 6 4 3 2 2 3 1 1 1 1 1 1 1 2 2 2 2 3 5 4 7 5 3 5 4 1 1 1 2 9 8 4 3 2 1 1 3 3 2 3 1 1 1 2 2 1 1 3 5 5 6 6 6 3 2 2 1 1 4 2 2 2 3 3 3 3 3 6 6 7 9 10 9 8 7 7
5 3 4 19 35 33 16 5 5 5 5 4 2 2 4 3 4 4 3 3 2 1 1 1 1 1 2 1 1 3 4 2 5 5 2 3 2 1 1 2 2 7 5 3 3 3 2 2 4 3 1 1 1 1 2 1 1 2 2 1 3 4 4 4 3 2 3 5 3 2 5 2 1 0 2 2 3 3 3 5 6 4 4 5 5 6 5 6
3 3 3 10 19 21 13 6 8 10 8 3 2 3 2 1 4 6 6 6 4 2 3 2 1 1 2 2 2 2 3 2 3 2 0 1 1 1 1 1 2 4 1 1 3 5 5 3 5 5 3 3 3 4 4 2 3 3 2 3 3 3 4 2 2 2 4 7 8 7 7 3 2 0 1 1 2 2 2 4 6 5 4 5 6 6 6 6
3 3 2 2 4 6 7 4 5 9 10 7 7 7 4 1 1 2 5 5 2 2 4 2 2 3 3 2 2 1 1 1 2 2 1 2 1 2 3 3 1 2 0 1 1 3 4 3 5 7 7 8 7 6 5 4 4 2 1 4 4 5 8 4 3 4 6 5 9 9 8 3 3 2 1 1 2 2 3 3 5 5 5 7 7 8 9 8
4 2 2 1 2 2 2 2 3 5 9 10 6 6 8 6 1 2 1 2 0 2 3 1 2 3 3 3 3 1 0 2 1 2 3 2 2 0 2 3 2 2 1 1 3 1 2 0 3 5 4 3 2 1 1 3 4 4 4 6 6 7 9 6 4 6 5 4 6 9 7 5 5 5 4 3 3 3 3 4 5 6 7 7 7 8 9 9
3 3 4 4 1 2 2 1 4 4 7 10 6 4 9 8 2 1 1 1 1 3 3 2 1 2 4 6 4 3 2 2 2 2 2 1 1 1 1 0 3 3 3 2 3 3 3 1 3 3 4 2 2 2 2 3 4 6 6 8 9 9 9 10 10 7 5 4 7 6 8 9 8 8 8 6 5 4 4 5 6 6 6 6 7 8 9 9
2 1 3 2 2 5 5 6 10 8 8 10 6 5 9 9 6 4 1 2 3 3 2 1 2 4 7 8 5 4 5 4 2 2 2 1 1 1 2 2 3 4 4 2 3 3 3 2 2 3 3 2 3 2 3 3 2 3 6 9 11 12 12 13 13 7 6 7 10 5 10 11 8 8 9 7 7 5 5 5 5 4 4 5 6 8 10 12
2 2 1 1 1 4 4 7 12 11 10 11 6 6 11 13 11 6 3 4 5 4 3 4 5 8 9 7 4 5 6 5 4 4 3 2 2 1 1 1 1 3 4 2 2 2 2 1 2 3 3 1 2 2 1 2 1 2 6 9 10 12 13 12 12 9 8 13 13 4 7 12 6 9 8 4 4 3 2 2 3 4 5 6 8 10 11 12
2 1 2 2 2 3 4 7 10 9 7 8 7 6 9 13 12 6 3 5 6 6 6 5 7 10 10 9 7 5 6 5 4 4 6 4 3 2 1 1 1 2 3 2 1 1 1 2 3 2 3 2 0 1 2 1 1 5 11 12 8 8 9 11 12 10 10 13 12 9 12 12 5 9 6 2 3 3 3 4 5 5 6 7 9 10 11 10
2 2 2 4 3 3 4 5 7 7 6 7 8 7 8 12 12 8 3 2 3 7 10 9 10 10 8 9 8 6 5 6 5 5 7 6 4 3 2 2 3 3 1 1 1 1 2 2 3 1 3 2 0 1 2 2 1 9 15 13 10 9 9 12 12 10 11 11 9 9 12 10 4 6 5 4 5 5 6 6 6 5 6 8 9 9 9 9
3 3 2 3 3 2 3 4 4 5 5 5 6 6 6 9 11 9 4 0 1 4 9 11 11 9 7 10 11 8 6 6 5 4 5 3 3 3 2 2 4 5 5 4 1 1 3 3 2 2 3 1 2 0 2 2 2 10 11 8 14 15 12 11 11 12 12 10 9 10 10 5 3 6 6 7 7 8 8 6 5 5 6 8 9 8 8 9
Wind_Direction
148 151 153 154 157 158 156 150 150 153 150 153 159 155 150 148 146 152 154 154 133 71 43 22 7 2 358 355 352 351 350 348 5 26 30 37 108 131 117 101 104 87 80 79 90 97 84 65 51 50 80 65 11 354 29 24 355 282 234 87 133 154 135 164 177 166 92 96 131 93 351 302 327 321 321 274 222 240 279 273 275 112 97 74 57 25 20 29
153 157 156 155 157 156 154 155 158 159 151 144 143 141 141 144 156 164 171 181 358 23 25 10 359 353 353 357 355 355 349 348 36 44 34 69 120 128 109 96 100 84 78 90 98 103 102 81 62 45 62 71 360 359 208 352 339 335 126 335 143 137 95 164 163 142 200 25 16 314 185 259 318 336 342 310 281 276 291 267 143 124 113 70 38 27 27 31
158 162 159 158 156 153 152 155 158 156 152 151 151 143 140 144 139 126 23 330 343 360 360 357 354 346 351 0 358 357 347 343 78 42 39 95 118 119 108 100 96 79 66 83 105 102 108 111 113 57 43 69 35 16 104 9 330 332 215 305 118 138 182 213 212 189 224 324 309 294 143 246 279 283 301 309 301 298 313 12 44 100 66 32 26 22 18 28
172 174 173 169 167 164 154 154 156 158 167 172 182 193 196 198 195 203 336 329 324 328 338 350 352 346 357 2 360 359 340 310 118 42 71 106 119 115 110 106 97 73 59 93 108 107 110 102 88 54 41 94 54 303 70 18 338 154 265 15 104 149 231 185 203 217 222 232 275 302 213 248 155 221 267 290 300 303 55 14 1 8 27 24 25 16 17 30
182 186 184 181 180 180 176 173 169 174 179 183 202 220 226 237 233 231 270 305 318 332 346 349 351 349 356 1 8 1 331 288 130 176 134 125 145 126 120 117 98 67 81 123 118 115 111 91 78 64 39 77 61 216 92 30 348 165 96 38 107 165 260 134 176 213 180 189 237 242 266 308 131 208 244 248 287 354 24 2 17 39 47 39 21 13 23 30
185 188 188 186 184 188 190 187 187 190 188 193 209 221 228 239 237 236 248 289 319 338 340 343 351 352 357 5 8 4 326 294 148 196 170 151 174 150 141 126 98 87 104 134 131 130 103 79 113 95 54 72 28 12 76 62 324 273 117 106 159 194 268 118 160 199 174 204 237 247 315 334 232 238 211 231 294 30 34 29 53 63 63 51 33 29 32 31
195 195 197 193 191 197 196 193 196 196 195 203 215 225 230 235 239 241 238 276 309 331 337 339 346 348 358 11 15 44 13 290 208 204 201 191 201 182 163 143 126 126 135 147 141 145 112 105 104 117 119 95 149 90 84 101 246 280 154 154 184 208 248 236 178 195 195 234 255 305 306 257 256 264 179 193 54 56 58 58 64 68 64 56 47 40 35 34
210 208 212 207 202 204 199 195 200 203 203 209 220 225 230 239 250 246 246 287 306 318 325 325 341 7 27 42 37 39 315 247 202 214 223 216 216 205 185 172 172 173 192 183 164 165 150 157 121 167 234 58 180 150 110 240 186 239 281 134 148 204 243 253 243 235 227 248 258 248 258 247 259 236 157 96 72 83 79 65 62 64 57 49 41 35 31 29
218 216 218 220 215 213 208 204 206 210 213 213 220 228 236 243 252 255 262 299 306 311 323 317 336 31 140 90 75 299 247 170 185 217 221 215 215 207 194 189 196 204 204 184 175 179 178 189 153 193 203 88 188 148 135 250 205 211 359 108 249 249 264 264 252 248 239 250 195 235 255 161 176 216 123 71 76 110 92 67 56 58 54 47 39 33 29 27
222 225 221 224 228 224 216 216 218 220 222 219 223 228 233 240 247 252 266 291 295 304 302 293 327 158 180 134 141 271 213 150 178 188 191 202 202 196 199 207 213 213 197 168 169 167 173 180 145 163 111 100 170 137 154 250 32 58 48 275 264 276 281 248 248 254 240 240 202 238 259 120 161 241 127 75 87 132 100 72 56 61 61 52 48 40 32 31
222 228 226 227 236 230 217 225 230 225 224 225 229 226 227 235 242 249 268 283 282 285 287 280 172 157 143 160 223 252 186 183 202 181 179 188 190 193 204 212 206 202 187 169 173 161 137 153 139 135 156 131 151 140 156 181 74 82 305 272 254 267 267 238 247 270 250 231 199 234 242 128 179 214 93 59 84 150 99 78 60 61 64 57 55 49 41 35
222 227 231 227 235 236 222 226 231 226 226 230 232 226 222 227 233 249 262 268 261 247 248 150 164 157 131 188 241 233 203 200 199 185 178 170 179 187 193 197 187 189 189 174 175 166 137 155 153 117 90 158 163 142 145 146 66 151 299 293 282 277 269 266 90 249 283 203 152 232 233 159 163 139 59 38 96 142 94 77 63 61 60 57 56 52 47 35
221 221 229 228 231 235 228 228 229 226 227 233 234 220 217 224 222 238 252 246 223 207 186 171 167 152 154 259 225 219 216 204 191 178 170 160 164 172 178 180 172 171 173 167 167 160 149 161 158 84 102 173 148 106 137 134 281 224 189 311 298 286 260 96 58 298 307 10 130 250 260 167 139 112 17 10 199 188 91 68 60 57 54 50 51 52 52 39
219 215 220 229 233 232 232 226 219 231 245 240 224 203 207 204 196 204 215 221 206 204 172 166 166 149 169 263 220 211 213 209 207 194 184 178 159 144 149 154 154 153 145 150 153 147 147 147 126 105 96 352 104 136 147 135 249 273 263 238 284 296 185 122 79 307 294 78 180 235 268 216 142 126 2 3 301 210 116 77 64 52 55 47 49 55 53 47
221 217 219 229 233 231 233 210 190 219 248 248 209 186 179 174 177 176 182 169 152 171 154 152 161 145 198 262 236 218 211 211 213 209 207 193 170 140 137 137 129 126 124 131 135 133 132 132 126 119 91 23 152 166 189 207 151 67 273 237 185 272 245 123 81 330 281 98 163 232 266 265 145 127 18 10 335 150 120 94 78 62 59 51 52 57 54 55
221 219 217 229 240 236 228 196 191 223 227 218 190 162 159 160 157 158 160 149 140 145 140 151 160 161 268 244 188 210 209 206 206 208 199 184 179 154 135 127 113 109 109 108 113 116 110 107 98 42 106 162 179 180 233 255 229 160 249 262 225 238 269 318 97 23 323 124 158 244 272 285 143 125 43 44 54 128 121 111 98 85 65 63 59 55 52 53
214 209 206 229 245 245 224 189 196 238 214 185 168 148 150 146 143 143 133 131 129 119 124 144 143 165 249 186 202 223 187 190 190 188 183 175 174 155 136 117 103 106 106 104 108 108 72 63 104 249 118 135 171 175 230 251 245 191 193 252 255 239 261 283 149 100 351 239 227 210 251 273 173 133 100 66 74 145 124 117 111 102 83 75 63 60 53 44
196 193 204 225 234 244 236 193 185 229 203 170 156 142 140 135 133 133 134 129 111 95 102 134 139 209 233 178 191 170 129 160 166 166 173 165 160 154 138 118 124 126 119 111 108 109 20 34 231 231 155 165 178 184 220 242 268 267 216 243 255 228 237 260 262 117 39 249 239 222 237 265 245 140 112 73 75 133 113 106 109 100 90 80 67 64 56 48
187 190 201 219 225 251 256 191 169 190 189 169 142 132 120 115 120 140 148 140 136 150 174 175 177 230 250 161 133 111 115 136 148 154 156 150 153 147 122 118 128 137 144 159 176 144 156 138 165 230 204 199 193 201 226 246 303 291 261 263 261 252 243 248 270 87 349 266 249 248 253 265 263 188 111 92 83 101 112 107 101 90 82 78 71 65 58 55
193 189 191 209 224 259 272 178 161 178 196 172 142 138 131 138 157 180 171 204 223 230 21 182 193 197 47 115 126 126 123 124 130 156 156 153 149 131 103 111 118 145 171 174 158 132 219 194 200 224 217 205 202 211 232 285 32 267 254 256 252 256 258 256 248 98 93 277 256 248 257 263 264 251 98 107 127 118 123 117 96 86 80 69 70 70 61 58
200 199 202 214 220 244 274 182 160 176 202 181 161 166 209 186 198 200 176 226 233 240 264 207 223 269 340 119 149 148 131 122 101 156 162 160 156 152 150 156 164 180 181 118 107 108 216 214 220 227 215 172 207 217 231 255 216 232 250 253 251 246 255 272 264 116 115 263 260 239 258 262 256 209 88 120 160 123 85 107 97 78 84 78 75 79 69 68
206 206 203 211 219 227 257 201 167 175 203 193 187 224 288 260 149 70 154 256 239 229 233 209 248 257 219 134 168 167 155 165 155 173 171 162 172 191 169 167 194 187 137 128 134 159 205 225 231 218 99 89 100 187 212 234 232 231 240 253 259 248 265 274 236 140 154 234 265 273 279 270 244 113 88 97 120 98 68 72 80 78 113 115 98 93 95 97
212 210 201 207 220 220 228 191 174 181 204 199 205 219 255 12 109 87 235 280 275 213 205 197 214 222 195 186 187 179 200 192 173 187 178 168 178 195 164 180 200 155 147 184 191 194 202 231 237 177 125 160 177 150 177 216 231 223 223 243 250 218 270 262 194 114 171 228 294 318 292 274 223 123 104 85 93 104 96 97 96 95 107 105 99 92 108 116
215 214 208 208 219 216 190 176 184 203 211 213 226 215 180 80 129 135 257 275 271 218 196 202 205 212 198 188 182 183 204 211 182 183 177 175 160 146 181 183 171 159 188 202 204 218 217 129 143 151 160 202 214 178 183 218 233 217 219 238 251 232 234 249 275 49 222 203 258 277 281 269 218 174 147 113 127 126 122 141 138 129 120 117 124 112 101 104
213 212 213 219 228 212 176 178 201 213 203 215 235 217 197 162 120 162 258 289 256 230 226 203 192 210 193 161 168 174 191 214 209 170 175 181 159 137 177 158 176 206 197 189 209 239 240 111 119 144 162 202 216 208 200 218 244 236 217 225 242 248 242 238 229 310 259 228 165 251 269 251 148 186 168 144 164 149 147 173 159 147 147 159 156 143 133 112
211 213 224 230 223 193 172 190 210 202 198 228 236 209 203 207 145 164 221 311 260 201 137 184 183 183 171 152 156 142 129 223 174 110 166 185 171 136 172 146 184 232 177 154 215 250 231 123 143 170 172 180 209 232 199 191 238 261 219 212 226 237 238 221 193 207 257 275 102 226 267 263 220 190 148 154 174 157 163 181 171 168 166 171 166 154 153 135
217 214 221 224 204 179 174 191 193 183 194 240 229 195 200 199 173 189 220 288 265 171 129 188 199 166 160 158 160 145 182 204 106 103 158 178 168 119 212 181 159 217 143 138 232 227 151 145 159 183 186 183 209 237 182 176 224 252 87 179 201 208 210 201 196 208 259 326 191 194 242 278 271 254 120 153 171 162 179 186 179 181 176 173 171 161 156 143
225 216 213 218 207 195 196 182 173 186 203 226 204 188 192 186 183 200 211 252 272 106 114 162 90 102 122 138 156 135 273 83 125 155 65 92 153 117 226 202 175 166 154 186 224 235 140 172 179 170 181 204 216 229 162 179 215 266 78 122 153 174 186 177 191 216 265 312 249 199 154 254 259 213 115 157 197 201 190 188 187 183 178 175 173 167 153 141
224 218 213 215 212 207 209 198 182 201 215 216 194 183 176 173 185 171 112 232 233 92 87 126 126 74 103 140 126 81 79 26 82 143 85 101 100 59 223 209 157 150 145 233 236 341 70 206 195 170 182 203 176 40 161 190 203 137 122 108 95 90 102 135 197 194 136 239 255 205 169 228 265 203 171 176 231 222 187 184 187 177 178 178 171 167 161 154
217 219 215 207 203 199 201 209 210 208 212 211 188 168 161 164 181 160 200 228 185 102 76 128 149 140 145 151 163 148 120 38 67 102 104 127 82 43 37 87 94 142 146 286 264 30 63 7 293 186 187 151 111 59 22 162 123 144 146 115 99 93 98 106 160 150 201 233 251 194 175 224 266 222 198 176 230 200 168 171 178 175 181 182 174 170 168 166
212 216 212 202 199 193 190 208 211 201 201 194 166 152 154 149 151 186 204 247 22 134 135 140 138 158 163 160 166 171 125 66 143 149 143 143 129 116 148 153 127 139 190 238 230 155 123 186 217 166 93 112 114 85 48 53 111 166 166 143 133 118 140 163 140 175 240 228 145 55 148 219 234 231 161 132 123 183 171 169 173 179 184 180 176 174 171 172
210 210 208 205 204 196 192 203 198 189 186 172 155 148 159 141 215 223 207 81 169 187 155 150 172 178 177 163 103 144 134 122 163 163 153 158 173 172 184 188 165 167 220 215 197 156 197 207 157 108 181 182 147 115 88 90 173 214 175 167 179 169 179 212 189 196 242 228 83 54 158 210 237 250 236 146 150 190 186 172 173 176 179 177 175 174 173 174
211 207 208 211 208 199 197 200 192 182 173 163 155 151 147 175 216 223 198 169 198 166 102 104 136 158 164 155 133 147 120 131 164 170 149 155 187 192 213 230 182 211 236 187 183 180 204 204 155 166 189 202 187 166 153 167 185 198 181 178 195 182 197 222 198 227 262 176 75 22 192 213 243 257 267 126 122 119 60 181 180 175 174 175 171 170 173 175
212 208 207 210 209 205 200 198 193 179 166 160 158 144 160 212 222 197 190 199 56 55 72 101 111 126 160 170 166 165 151 155 163 160 159 168 190 201 209 219 215 250 67 156 192 195 215 239 172 175 156 175 193 200 133 141 162 191 182 196 222 200 228 236 206 243 284 105 116 161 211 212 195 135 15 46 63 34 277 284 208 176 169 163 159 167 175 180
209 207 205 203 204 206 199 196 196 180 164 158 161 162 191 221 219 179 187 183 124 93 73 98 120 138 181 207 162 189 209 201 163 157 174 181 196 201 196 198 199 194 163 183 195 182 226 271 106 124 347 175 186 198 53 119 147 167 58 210 250 248 233 283 341 5 38 359 199 188 233 251 166 122 79 42 22 159 197 210 196 186 170 155 163 179 185 186
203 201 201 198 199 202 196 194 196 183 168 158 168 188 211 219 197 172 186 162 153 143 120 126 143 151 189 186 184 208 241 102 160 174 194 196 222 210 188 197 193 194 196 188 177 166 208 270 61 49 355 86 215 186 90 235 161 138 164 192 209 341 73 133 164 76 73 270 234 172 223 234 141 193 148 126 206 191 191 199 192 188 175 171 185 193 193 189
194 193 197 197 198 200 194 194 194 183 172 169 192 204 217 217 183 155 173 141 141 144 143 182 189 169 185 189 191 194 183 149 169 187 185 180 221 195 188 225 194 196 213 214 203 207 192 155 68 28 119 66 329 250 80 360 29 136 184 186 134 5 337 187 247 151 172 255 254 177 220 210 180 207 140 148 201 207 203 194 183 185 183 187 198 198 194 186
187 188 197 200 199 197 193 195 191 179 172 192 209 219 218 206 191 119 137 117 128 156 180 210 195 174 186 191 184 179 180 177 169 183 184 180 219 178 174 204 191 195 210 206 284 236 200 186 104 57 136 92 301 226 122 50 347 70 197 146 106 215 199 158 233 244 210 252 269 190 211 218 205 195 157 184 205 203 196 184 183 191 191 194 200 197 193 182
183 184 208 200 197 195 193 194 188 174 186 201 208 223 212 178 167 93 136 132 120 171 200 215 209 194 188 182 162 167 185 186 162 174 194 186 209 179 171 187 185 193 197 177 188 199 158 229 180 116 327 78 209 223 183 164 124 38 127 143 60 268 216 164 184 231 226 252 277 230 205 212 208 190 178 192 201 191 182 184 194 197 194 195 196 194 192 184
175 186 227 179 187 193 189 188 188 179 206 207 210 220 188 161 162 84 332 246 100 183 208 212 210 206 183 176 160 164 189 194 171 182 203 178 185 195 188 188 155 164 155 153 204 185 123 229 199 127 253 208 190 212 204 179 159 159 175 172 174 170 7 253 202 107 256 251 254 267 270 207 167 175 187 188 196 186 181 187 195 193 195 197 196 194 189 178
167 212 203 165 177 184 179 179 197 200 205 218 226 228 195 168 145 112 6 18 64 341 5 154 194 201 175 177 190 174 178 188 182 190 208 190 202 213 193 195 152 146 126 136 199 202 174 196 176 155 187 201 194 6 294 253 190 177 184 180 182 171 157 210 218 160 292 268 246 267 283 243 116 33 347 20 359 228 194 190 188 191 198 199 197 193 183 172
172 213 173 162 170 172 170 179 196 184 217 220 215 207 167 145 151 154 128 66 82 63 57 81 151 166 173 180 197 170 161 177 188 197 212 194 198 167 112 343 163 155 151 157 185 176 130 126 150 154 177 197 283 360 231 273 312 304 234 188 185 184 178 206 224 183 159 235 354 327 282 293 86 21 350 341 323 301 227 196 189 195 198 196 187 173 167 171
175 185 129 159 168 167 169 202 180 181 232 214 161 151 150 157 178 170 172 182 164 117 130 139 125 151 187 165 130 166 167 180 184 190 219 183 150 75 294 302 183 166 163 155 151 145 141 160 161 145 85 78 359 222 192 284 226 212 250 183 190 202 192 216 225 155 187 198 157 211 246 231 137 39 360 307 284 287 243 205 192 185 174 177 169 151 157 169
136 115 109 167 175 174 179 194 188 199 209 177 163 178 139 113 174 175 188 188 175 153 156 162 171 170 166 140 116 154 175 199 185 180 271 163 133 4 319 297 167 166 175 177 168 170 175 178 167 157 150 167 197 202 198 204 202 213 206 171 194 164 118 88 90 120 238 203 175 219 245 187 138 282 3 295 249 224 219 200 187 178 165 173 173 167 173 172
127 87 71 177 197 193 191 179 181 200 199 189 193 185 168 165 178 183 182 167 143 154 156 163 159 125 114 115 82 79 162 188 178 169 124 117 62 4 337 335 94 132 150 321 292 185 184 190 179 180 187 194 200 205 197 172 168 200 178 176 198 167 155 159 150 194 231 183 172 220 243 172 146 235 243 216 216 197 174 174 183 187 189 187 183 182 183 182
156 104 108 143 343 281 224 108 143 193 197 191 192 188 186 187 219 345 128 134 124 139 113 71 115 100 102 124 107 111 238 29 77 142 142 132 111 35 311 332 55 81 93 43 20 98 147 248 230 222 230 208 162 166 147 109 140 186 187 180 191 187 183 187 198 210 201 161 202 221 222 226 206 182 184 198 205 203 170 172 188 195 203 198 191 194 191 191
171 145 157 155 139 214 246 192 178 189 188 185 183 178 181 177 164 351 24 54 159 127 76 36 104 137 160 153 138 157 160 80 70 121 125 118 105 167 255 80 68 16 8 31 15 63 116 228 233 238 277 300 52 81 168 152 175 194 190 189 191 187 187 197 214 212 143 170 243 190 167 233 233 174 176 191 198 212 193 192 203 204 206 196 188 193 193 199
199 133 160 150 139 187 208 203 190 181 172 177 178 163 171 174 173 174 144 103 148 142 98 86 211 197 176 161 148 151 152 141 150 156 139 117 102 73 349 35 46 4 15 28 1 73 132 227 189 173 254 297 44 60 183 179 194 205 200 202 194 186 188 200 215 206 145 209 249 148 154 229 237 172 185 188 180 196 195 193 199 195 197 185 182 195 201 207
163 90 102 360 44 169 166 166 176 180 173 169 166 170 177 182 182 175 143 136 160 198 191 170 191 192 180 173 159 151 163 164 168 178 166 141 128 109 28 42 45 16 43 69 17 65 161 200 115 156 207 119 47 360 176 171 209 252 231 219 201 188 192 204 214 208 198 233 254 235 215 244 216 163 190 192 159 169 157 159 177 182 193 190 193 208 213 213
162 135 143 104 62 111 109 129 158 173 172 166 176 186 184 183 178 163 155 162 161 184 199 184 178 178 178 182 178 172 172 147 135 164 160 151 157 155 166 175 133 32 42 96 71 17 222 173 90 121 191 162 55 6 40 60 222 246 247 236 209 181 190 213 224 219 218 240 253 250 251 257 200 157 178 166 131 154 170 183 193 197 200 197 203 215 218 216
95 57 122 124 111 115 118 130 153 164 173 185 188 179 178 186 176 149 154 225 149 165 184 179 165 164 174 184 183 182 166 131 121 149 155 158 173 177 197 184 149 139 128 142 133 120 194 173 74 95 198 195 71 135 130 80 258 259 257 234 190 179 197 213 222 219 216 229 238 240 249 253 190 148 168 166 163 191 202 199 201 207 205 207 214 217 217 216
91 39 32 102 111 142 137 123 147 169 179 189 182 169 171 180 170 150 142 293 329 177 176 166 157 155 169 188 190 188 172 141 127 137 146 144 140 153 187 169 141 151 165 168 151 117 165 165 118 165 203 211 2 182 148 99 275 265 259 203 180 193 203 210 222 220 214 216 222 231 243 242 149 153 183 194 195 207 215 209 207 211 211 217 220 217 215 215